Terminal Aerodrome Forecast
Issued by NWS

Home | Current Version | Previous Version | Text Only | Print | Product List | Glossary On
Versions: 1 2 3 4 5 6 7 8 9 10 11 12 13 14 15 16 17 18 19 20 21 22 23 24 25 26 27 28 29 30 31 32 33 34 35 36 37 38 39 40
000
FTUS45 KBOU 250101 AAB
TAFAPA
TAF AMD
KAPA 250101Z 2501/2524 04006KT P6SM VCTS FEW090CB SCT120 BKN200
     FM250110 21015G25KT P6SM VCTS FEW090CB SCT120 BKN200
     FM250230 20011KT P6SM FEW090 SCT140 BKN220
     FM250500 19010KT P6SM FEW120 SCT220
     FM251500 03006KT P6SM FEW100 SCT220
     FM251900 13010KT P6SM FEW080 SCT150
     FM252200 21010KT P6SM SCT080 BKN150=

USA.gov is the U.S. government's official web portal to all federal, state and local government web resources and services.